Regional Weather Roundup
Issued by NWS

Home | Current Version | Previous Version | Text Only | Print | Product List | Glossary On
Versions: 1 2 3 4 5 6 7 8 9 10 11 12 13 14 15 16 17 18 19 20 21 22 23 24 25 26 27 28 29 30 31 32 33 34 35 36 37 38 39 40 41 42 43 44 45 46 47 48 49 50
000
ASPQ40 PGUM 211412
RWRPQ
WEATHER ROUNDUP FOR THE MARIANAS AND MICRONESIA
NATIONAL WEATHER SERVICE TIYAN GU
1200 AM CHST MON DEC 22 2014

GUZ001>004-211500-
MARIANA ISLANDS-

CITY           SKY/WX    TMP DP  RH WIND       PRES   REMARKS
GUAM AIRPORT   PTCLDY    82  75  78 E13       29.87F
ANDERSEN AFB   CLOUDY    81  75  83 E21       29.88F
ROTA AIRPORT   NOT AVBL
TINIAN AP      NOT AVBL
SAIPAN AP      MOCLDY    82  75  78 E17G26    29.89S

$$

PMZ161-211500-
REPUBLIC OF PALAU-

CITY           SKY/WX    TMP DP  RH WIND       PRES   REMARKS
KOROR AP       MOCLDY    79  77  94 NE3       29.81F
KOROR WSO      CLOUDY    81  75  83 E8        29.80F

$$

PMZ171>174-211500-
FEDERATED STATES OF MICRONESIA-

CITY           SKY/WX    TMP DP  RH WIND       PRES   REMARKS
YAP AIRPORT    MOCLDY    81  77  89 VRB6      29.80F
CHUUK AP       CLOUDY    82  75  78 E12       29.77F
POHNPEI AP     CLOUDY    79  77  94 NE20      29.75F
POHNPEI WSO    CLOUDY    82  79  89 N5G22     29.79  HX  93
KOSRAE AP      NOT AVBL

$$

PMZ181-211500-
REPUBLIC OF THE MARSHALL ISLANDS-

CITY           SKY/WX    TMP DP  RH WIND       PRES   REMARKS
KWAJALEIN AP   PTCLDY    82  72  69 NE23G33   29.79F
MAJURO AP      NOT AVBL
MAJURO WSO     NOT AVBL

$$



USA.gov is the U.S. government's official web portal to all federal, state and local government web resources and services.